TIME,�t�@���q�[�^�m���b�g���n,�t���O,�t�@���q�[�^�mMJ�n,�t���O
2003/2/1 0:00,9.73E-05,0,11.9,0
2003/2/1 0:15,0.00010455,0,12.79,0
2003/2/1 0:30,9.91E-05,0,12.12,0
2003/2/1 0:45,5.70E-05,0,0,0
2003/2/1 1:00,0,0,0,0
2003/2/1 1:15,0,0,0,0
2003/2/1 1:30,0,0,0,0
2003/2/1 1:45,0,0,0,0
2003/2/1 2:00,0,0,0,0
2003/2/1 2:15,0,0,0,0
2003/2/1 2:30,0,0,0,0
2003/2/1 2:45,0,0,0,0
2003/2/1 3:00,0,0,0,0
2003/2/1 3:15,0,0,0,0
2003/2/1 3:30,0,0,0,0
2003/2/1 3:45,0,0,0,0
2003/2/1 4:00,0,0,0,0
2003/2/1 4:15,0,0,0,0
2003/2/1 4:30,0,0,0,0
2003/2/1 4:45,0,0,0,0
2003/2/1 5:00,0,0,0,0
2003/2/1 5:15,0,0,0,0
2003/2/1 5:30,0,0,0,0
2003/2/1 5:45,0,0,0,0
2003/2/1 6:00,0,0,0,0
2003/2/1 6:15,0,0,0,0
2003/2/1 6:30,0,0,0,0
2003/2/1 6:45,0,0,0,0
2003/2/1 7:00,0,0,0,0
2003/2/1 7:15,0,0,0,0
2003/2/1 7:30,0,0,0,0
2003/2/1 7:45,0,0,0,0
2003/2/1 8:00,0.000067445,0,8.25,0
2003/2/1 8:15,0.000107061,0,13.1,0
2003/2/1 8:30,0.000107061,0,13.1,0
2003/2/1 8:45,0.000107061,0,13.1,0
2003/2/1 9:00,0.000107061,0,13.1,0
2003/2/1 9:15,0.000107061,0,13.1,0
2003/2/1 9:30,0.000107061,0,13.09,0
2003/2/1 9:45,0.000107061,0,13.09,0
2003/2/1 10:00,0.000107061,0,13.09,0
2003/2/1 10:15,0.000106241,0,13,0
2003/2/1 10:30,9.85E-05,0,12.05,0
2003/2/1 10:45,0.000107061,0,13.1,0
2003/2/1 11:00,0.000107061,0,13.1,0
2003/2/1 11:15,0.000107061,0,13.09,0
2003/2/1 11:30,0.00010701,0,13.09,0
2003/2/1 11:45,9.45E-05,0,11.56,0
2003/2/1 12:00,0.00009881,0,12.09,0
2003/2/1 12:15,9.31E-05,0,11.39,0
2003/2/1 12:30,8.97E-05,0,10.97,0
2003/2/1 12:45,8.55E-05,0,10.47,0
2003/2/1 13:00,0.00009922,0,12.14,0
2003/2/1 13:15,0.000089175,0,10.91,0
2003/2/1 13:30,0.000101116,0,12.37,0
2003/2/1 13:45,5.75E-05,0,0,0
2003/2/1 14:00,0,0,0,0
2003/2/1 14:15,0,0,0,0
2003/2/1 14:30,0,0,0,0
2003/2/1 14:45,0,0,0,0
2003/2/1 15:00,0,0,0,0
2003/2/1 15:15,0,0,0,0
2003/2/1 15:30,4.97E-05,0,6.07,0
2003/2/1 15:45,0.000107061,0,13.1,0
2003/2/1 16:00,0.000107061,0,13.09,0
2003/2/1 16:15,0.00010701,0,13.09,0
2003/2/1 16:30,0.000106908,0,13.08,0
2003/2/1 16:45,0.000132123,0,8.73,0
2003/2/1 17:00,0,0,0,0
2003/2/1 17:15,0,0,0,0
2003/2/1 17:30,0,0,0,0
2003/2/1 17:45,0,0,0,0
2003/2/1 18:00,0,0,0,0
2003/2/1 18:15,0,0,0,0
2003/2/1 18:30,7.33E-06,0,0.9,0
2003/2/1 18:45,0.000107061,0,13.1,0
2003/2/1 19:00,0.000107061,0,13.1,0
2003/2/1 19:15,0.000107061,0,13.09,0
2003/2/1 19:30,0.00010701,0,13.09,0
2003/2/1 19:45,0.000107061,0,13.09,0
2003/2/1 20:00,0.00010701,0,13.09,0
2003/2/1 20:15,0.00010701,0,13.09,0
2003/2/1 20:30,0.00010701,0,13.09,0
2003/2/1 20:45,0.00010701,0,13.09,0
2003/2/1 21:00,0.00010701,0,13.09,0
2003/2/1 21:15,0.00010701,0,13.09,0
2003/2/1 21:30,0.000116491,0,14.25,0
2003/2/1 21:45,0.000107061,0,13.09,0
2003/2/1 22:00,0.00010701,0,13.09,0
2003/2/1 22:15,0.00010701,0,13.09,0
2003/2/1 22:30,0.00010701,0,13.09,0
2003/2/1 22:45,0.00008733,0,10.68,0
2003/2/1 23:00,0.00010578,0,12.94,0
2003/2/1 23:15,0.000101373,0,12.4,0
2003/2/1 23:30,9.88E-05,0,12.08,0
2003/2/1 23:45,8.28E-05,0,10.13,0
2003/2/2 0:00,0.000089175,0,10.91,0
2003/2/2 0:15,8.75E-05,0,10.7,0
2003/2/2 0:30,0.00007708,0,9.43,0
2003/2/2 0:45,8.84E-05,0,6.95,0
2003/2/2 1:00,0,0,0,0
2003/2/2 1:15,0,0,0,0
2003/2/2 1:30,0,0,0,0
2003/2/2 1:45,0,0,0,0
2003/2/2 2:00,0,0,0,0
2003/2/2 2:15,0,0,0,0
2003/2/2 2:30,0,0,0,0
2003/2/2 2:45,0,0,0,0
2003/2/2 3:00,0,0,0,0
2003/2/2 3:15,0,0,0,0
2003/2/2 3:30,0,0,0,0
2003/2/2 3:45,0,0,0,0
2003/2/2 4:00,0,0,0,0
2003/2/2 4:15,0,0,0,0
2003/2/2 4:30,0,0,0,0
2003/2/2 4:45,0,0,0,0
2003/2/2 5:00,0,0,0,0
2003/2/2 5:15,0,0,0,0
2003/2/2 5:30,0,0,0,0
2003/2/2 5:45,0,0,0,0
2003/2/2 6:00,0,0,0,0
2003/2/2 6:15,0,0,0,0
2003/2/2 6:30,0,0,0,0
2003/2/2 6:45,0,0,0,0
2003/2/2 7:00,0,0,0,0
2003/2/2 7:15,0,0,0,0
2003/2/2 7:30,0,0,0,0
2003/2/2 7:45,0,0,0,0
2003/2/2 8:00,2.97E-06,0,0.36,0
2003/2/2 8:15,0.000107061,0,13.1,0
2003/2/2 8:30,0.000107061,0,13.1,0
2003/2/2 8:45,0.000107061,0,13.1,0
2003/2/2 9:00,0.000107061,0,13.1,0
2003/2/2 9:15,0.000107061,0,13.1,0
2003/2/2 9:30,0.00010332,0,12.64,0
2003/2/2 9:45,5.90E-05,0,7.22,0
2003/2/2 10:00,0.000102449,0,12.53,0
2003/2/2 10:15,0.000100091,0,12.25,0
2003/2/2 10:30,8.51E-05,0,10.42,0
2003/2/2 10:45,8.94E-05,0,10.94,0
2003/2/2 11:00,7.00E-05,0,8.57,0
2003/2/2 11:15,6.89E-05,0,8.43,0
2003/2/2 11:30,4.73E-05,0,5.78,0
2003/2/2 11:45,5.11E-05,0,6.25,0
2003/2/2 12:00,0.00002583,0,3.16,0
2003/2/2 12:15,0.000022755,0,2.79,0
2003/2/2 12:30,0.000022755,0,2.78,0
2003/2/2 12:45,3.43E-05,0,0,0
2003/2/2 13:00,0,0,0,0
2003/2/2 13:15,0,0,0,0
2003/2/2 13:30,0,0,0,0
2003/2/2 13:45,0,0,0,0
2003/2/2 14:00,0,0,0,0
2003/2/2 14:15,0,0,0,0
2003/2/2 14:30,0,0,0,0
2003/2/2 14:45,0,0,0,0
2003/2/2 15:00,0,0,0,0
2003/2/2 15:15,2.33E-05,0,2.85,0
2003/2/2 15:30,0.000107061,0,13.1,0
2003/2/2 15:45,0.000107061,0,13.09,0
2003/2/2 16:00,0.000106856,0,13.08,0
2003/2/2 16:15,0.000103525,0,12.67,0
2003/2/2 16:30,0.00009758,0,11.94,0
2003/2/2 16:45,0.00009676,0,11.84,0
2003/2/2 17:00,8.31E-05,0,10.16,0
2003/2/2 17:15,0.00008036,0,9.83,0
2003/2/2 17:30,7.50E-05,0,9.17,0
2003/2/2 17:45,9.34E-05,0,11.43,0
2003/2/2 18:00,8.72E-05,0,10.66,0
2003/2/2 18:15,9.44E-05,0,11.55,0
2003/2/2 18:30,9.16E-05,0,11.21,0
2003/2/2 18:45,9.86E-05,0,12.06,0
2003/2/2 19:00,9.04E-05,0,11.06,0
2003/2/2 19:15,9.85E-05,0,12.05,0
2003/2/2 19:30,9.19E-05,0,11.25,0
2003/2/2 19:45,9.15E-05,0,11.19,0
2003/2/2 20:00,8.89E-05,0,10.88,0
2003/2/2 20:15,9.62E-05,0,11.77,0
2003/2/2 20:30,8.05E-05,0,9.85,0
2003/2/2 20:45,7.24E-05,0,8.86,0
2003/2/2 21:00,6.43E-05,0,7.87,0
2003/2/2 21:15,0.000061295,0,7.5,0
2003/2/2 21:30,6.96E-05,0,8.52,0
2003/2/2 21:45,6.90E-05,0,8.45,0
2003/2/2 22:00,0.00005453,0,6.67,0
2003/2/2 22:15,0.000065805,0,8.05,0
2003/2/2 22:30,5.59E-05,0,6.84,0
2003/2/2 22:45,0.000070315,0,8.6,0
2003/2/2 23:00,0.000053505,0,6.55,0
2003/2/2 23:15,6.25E-05,0,7.64,0
2003/2/2 23:30,5.93E-05,0,1.9,0
2003/2/2 23:45,0,0,0,0
2003/2/3 0:00,0,0,0,0
2003/2/3 0:15,0,0,0,0
2003/2/3 0:30,0,0,0,0
2003/2/3 0:45,0,0,0,0
2003/2/3 1:00,0,0,0,0
2003/2/3 1:15,0,0,0,0
2003/2/3 1:30,0,0,0,0
2003/2/3 1:45,0,0,0,0
2003/2/3 2:00,0,0,0,0
2003/2/3 2:15,0,0,0,0
2003/2/3 2:30,0,0,0,0
2003/2/3 2:45,0,0,0,0
2003/2/3 3:00,0,0,0,0
2003/2/3 3:15,0,0,0,0
2003/2/3 3:30,0,0,0,0
2003/2/3 3:45,0,0,0,0
2003/2/3 4:00,0,0,0,0
2003/2/3 4:15,0,0,0,0
2003/2/3 4:30,0,0,0,0
2003/2/3 4:45,0,0,0,0
2003/2/3 5:00,0,0,0,0
2003/2/3 5:15,0,0,0,0
2003/2/3 5:30,0,0,0,0
2003/2/3 5:45,0,0,0,0
2003/2/3 6:00,0,0,0,0
2003/2/3 6:15,0,0,0,0
2003/2/3 6:30,0,0,0,0
2003/2/3 6:45,0,0,0,0
2003/2/3 7:00,0,0,0,0
2003/2/3 7:15,0,0,0,0
2003/2/3 7:30,7.53E-05,0,9.21,0
2003/2/3 7:45,0.000107061,0,13.1,0
2003/2/3 8:00,0.000113775,0,8.73,0
2003/2/3 8:15,0,0,0,0
2003/2/3 8:30,1.49E-06,0,0.18,0
2003/2/3 8:45,0.000106805,0,13.07,0
2003/2/3 9:00,0.000107061,0,13.1,0
2003/2/3 9:15,0.000107061,0,13.1,0
2003/2/3 9:30,0.00010701,0,13.09,0
2003/2/3 9:45,0.000106856,0,13.08,0
2003/2/3 10:00,0.00010619,0,12.99,0
2003/2/3 10:15,9.99E-05,0,12.23,0
2003/2/3 10:30,0.000044895,0,5.5,0
2003/2/3 10:45,0.000022755,0,2.78,0
2003/2/3 11:00,0.00004551,0,5.57,0
2003/2/3 11:15,0.000084665,0,10.36,0
2003/2/3 11:30,3.49E-05,0,0,0
2003/2/3 11:45,0,0,0,0
2003/2/3 12:00,0,0,0,0
2003/2/3 12:15,0,0,0,0
2003/2/3 12:30,6.00E-05,0,7.33,0
2003/2/3 12:45,0.000101475,0,12.42,0
2003/2/3 13:00,0.00009102,0,11.13,0
2003/2/3 13:15,8.47E-05,0,10.36,0
2003/2/3 13:30,6.58E-05,0,8.04,0
2003/2/3 13:45,6.09E-05,0,7.45,0
2003/2/3 14:00,4.62E-05,0,5.66,0
2003/2/3 14:15,6.94E-05,0,8.49,0
2003/2/3 14:30,6.71E-05,0,8.2,0
2003/2/3 14:45,6.29E-05,0,7.69,0
2003/2/3 15:00,0.00007011,0,8.57,0
2003/2/3 15:15,6.55E-05,0,8.02,0
2003/2/3 15:30,7.10E-05,0,8.68,0
2003/2/3 15:45,0.00006888,0,8.42,0
2003/2/3 16:00,8.60E-05,0,10.52,0
2003/2/3 16:15,9.15E-05,0,11.2,0
2003/2/3 16:30,8.70E-05,0,10.65,0
2003/2/3 16:45,8.87E-05,0,10.85,0
2003/2/3 17:00,7.43E-05,0,9.09,0
2003/2/3 17:15,0.000087125,0,10.66,0
2003/2/3 17:30,8.25E-05,0,10.09,0
2003/2/3 17:45,0.000085895,0,10.51,0
2003/2/3 18:00,8.25E-05,0,10.09,0
2003/2/3 18:15,0.000076055,0,9.3,0
2003/2/3 18:30,7.64E-05,0,9.35,0
2003/2/3 18:45,8.11E-05,0,9.93,0
2003/2/3 19:00,7.39E-05,0,9.04,0
2003/2/3 19:15,9.01E-05,0,11.03,0
2003/2/3 19:30,0.00008692,0,10.63,0
2003/2/3 19:45,8.54E-05,0,10.44,0
2003/2/3 20:00,8.44E-05,0,10.32,0
2003/2/3 20:15,7.90E-05,0,9.66,0
2003/2/3 20:30,8.48E-05,0,10.37,0
2003/2/3 20:45,0.000086715,0,10.61,0
2003/2/3 21:00,8.26E-05,0,10.1,0
2003/2/3 21:15,8.14E-05,0,9.96,0
2003/2/3 21:30,7.50E-05,0,9.17,0
2003/2/3 21:45,6.88E-05,0,8.41,0
2003/2/3 22:00,6.98E-05,0,8.54,0
2003/2/3 22:15,6.29E-05,0,7.69,0
2003/2/3 22:30,0.000050225,0,6.15,0
2003/2/3 22:45,0.000063345,0,7.75,0
2003/2/3 23:00,5.11E-05,0,6.25,0
2003/2/3 23:15,0.00003526,0,0,0
2003/2/3 23:30,0,0,0,0
2003/2/3 23:45,0,0,0,0
2003/2/4 0:00,0,0,0,0
2003/2/4 0:15,0,0,0,0
2003/2/4 0:30,0,0,0,0
2003/2/4 0:45,0,0,0,0
2003/2/4 1:00,0,0,0,0
2003/2/4 1:15,0,0,0,0
2003/2/4 1:30,0,0,0,0
2003/2/4 1:45,0,0,0,0
2003/2/4 2:00,0,0,0,0
2003/2/4 2:15,0,0,0,0
2003/2/4 2:30,0,0,0,0
2003/2/4 2:45,0,0,0,0
2003/2/4 3:00,0,0,0,0
2003/2/4 3:15,0,0,0,0
2003/2/4 3:30,0,0,0,0
2003/2/4 3:45,0,0,0,0
2003/2/4 4:00,0,0,0,0
2003/2/4 4:15,0,0,0,0
2003/2/4 4:30,0,0,0,0
2003/2/4 4:45,0,0,0,0
2003/2/4 5:00,0,0,0,0
2003/2/4 5:15,0,0,0,0
2003/2/4 5:30,0,0,0,0
2003/2/4 5:45,0,0,0,0
2003/2/4 6:00,0,0,0,0
2003/2/4 6:15,0,0,0,0
2003/2/4 6:30,0,0,0,0
2003/2/4 6:45,0,0,0,0
2003/2/4 7:00,0,0,0,0
2003/2/4 7:15,1.39E-05,0,1.7,0
2003/2/4 7:30,8.68E-05,0,10.61,0
2003/2/4 7:45,0.000107061,0,13.1,0
2003/2/4 8:00,0.000107061,0,13.1,0
2003/2/4 8:15,0.000107061,0,13.1,0
2003/2/4 8:30,0.000107061,0,13.1,0
2003/2/4 8:45,0.000105575,0,12.92,0
2003/2/4 9:00,0.000100758,0,12.33,0
2003/2/4 9:15,8.36E-05,0,10.23,0
2003/2/4 9:30,8.88E-05,0,10.87,0
2003/2/4 9:45,0.000106344,0,13.01,0
2003/2/4 10:00,0.000075645,0,9.25,0
2003/2/4 10:15,6.87E-05,0,8.41,0
2003/2/4 10:30,0.000102551,0,7.88,0
2003/2/4 10:45,0,0,0,0
2003/2/4 11:00,0,0,0,0
2003/2/4 11:15,0,0,0,0
2003/2/4 11:30,5.09E-05,0,6.23,0
2003/2/4 11:45,0.000106446,0,13.02,0
2003/2/4 12:00,0.000099425,0,12.16,0
2003/2/4 12:15,9.27E-05,0,11.34,0
2003/2/4 12:30,7.97E-05,0,9.75,0
2003/2/4 12:45,5.89E-05,0,7.21,0
2003/2/4 13:00,6.22E-05,0,7.61,0
2003/2/4 13:15,3.35E-05,0,4.1,0
2003/2/4 13:30,0.000022755,0,2.78,0
2003/2/4 13:45,0.000022755,0,2.78,0
2003/2/4 14:00,2.28E-05,0,2.79,0
2003/2/4 14:15,0.000022755,0,2.78,0
2003/2/4 14:30,3.82E-05,0,3.17,0
2003/2/4 14:45,0.000062115,0,7.6,0
2003/2/4 15:00,9.42E-05,0,11.53,0
2003/2/4 15:15,8.29E-05,0,10.15,0
2003/2/4 15:30,0.00007626,0,9.33,0
2003/2/4 15:45,7.84E-05,0,9.59,0
2003/2/4 16:00,9.67E-05,0,11.83,0
2003/2/4 16:15,0.000055965,0,6.84,0
2003/2/4 16:30,0.00005863,0,7.17,0
2003/2/4 16:45,0.000096555,0,11.81,0
2003/2/4 17:00,7.54E-05,0,9.22,0
2003/2/4 17:15,0.000067855,0,8.3,0
2003/2/4 17:30,7.84E-05,0,9.58,0
2003/2/4 17:45,9.56E-05,0,11.7,0
2003/2/4 18:00,9.19E-05,0,11.25,0
2003/2/4 18:15,9.58E-05,0,11.72,0
2003/2/4 18:30,9.69E-05,0,11.85,0
2003/2/4 18:45,0.000100553,0,12.3,0
2003/2/4 19:00,0.000085895,0,10.51,0
2003/2/4 19:15,8.56E-05,0,10.47,0
2003/2/4 19:30,7.57E-05,0,9.26,0
2003/2/4 19:45,7.69E-05,0,9.41,0
2003/2/4 20:00,0.000071545,0,8.75,0
2003/2/4 20:15,7.39E-05,0,9.04,0
2003/2/4 20:30,7.59E-05,0,9.28,0
2003/2/4 20:45,8.41E-05,0,10.29,0
2003/2/4 21:00,9.03E-05,0,11.05,0
2003/2/4 21:15,8.19E-05,0,10.03,0
2003/2/4 21:30,7.35E-05,0,8.99,0
2003/2/4 21:45,8.18E-05,0,10.01,0
2003/2/4 22:00,6.93E-05,0,8.48,0
2003/2/4 22:15,5.90E-05,0,7.22,0
2003/2/4 22:30,4.89E-05,0,5.98,0
2003/2/4 22:45,6.21E-05,0,7.59,0
2003/2/4 23:00,5.77E-05,0,7.06,0
2003/2/4 23:15,5.63E-05,0,6.88,0
2003/2/4 23:30,6.08E-05,0,2.42,0
2003/2/4 23:45,0,0,0,0
2003/2/5 0:00,0,0,0,0
2003/2/5 0:15,0,0,0,0
2003/2/5 0:30,0,0,0,0
2003/2/5 0:45,0,0,0,0
2003/2/5 1:00,0,0,0,0
2003/2/5 1:15,0,0,0,0
2003/2/5 1:30,0,0,0,0
2003/2/5 1:45,0,0,0,0
2003/2/5 2:00,0,0,0,0
2003/2/5 2:15,0,0,0,0
2003/2/5 2:30,0,0,0,0
2003/2/5 2:45,0,0,0,0
2003/2/5 3:00,0,0,0,0
2003/2/5 3:15,0,0,0,0
2003/2/5 3:30,0,0,0,0
2003/2/5 3:45,0,0,0,0
2003/2/5 4:00,0,0,0,0
2003/2/5 4:15,0,0,0,0
2003/2/5 4:30,0,0,0,0
2003/2/5 4:45,0,0,0,0
2003/2/5 5:00,0,0,0,0
2003/2/5 5:15,0,0,0,0
2003/2/5 5:30,0,0,0,0
2003/2/5 5:45,0,0,0,0
2003/2/5 6:00,0,0,0,0
2003/2/5 6:15,0,0,0,0
2003/2/5 6:30,0,0,0,0
2003/2/5 6:45,0,0,0,0
2003/2/5 7:00,0,0,0,0
2003/2/5 7:15,7.47E-05,0,9.14,0
2003/2/5 7:30,0.000107061,0,13.1,0
2003/2/5 7:45,0.000107061,0,13.1,0
2003/2/5 8:00,0.000107061,0,13.1,0
2003/2/5 8:15,0.000105831,0,12.95,0
2003/2/5 8:30,0.000105473,0,12.9,0
2003/2/5 8:45,7.70E-05,0,9.42,0
2003/2/5 9:00,3.90E-05,0,4.77,0
2003/2/5 9:15,6.45E-05,0,1.32,0
2003/2/5 9:30,0.0000205,0,2.51,0
2003/2/5 9:45,0.000022755,0,2.78,0
2003/2/5 10:00,0.000022755,0,2.78,0
2003/2/5 10:15,0.000022755,0,2.78,0
2003/2/5 10:30,0.000022755,0,2.78,0
2003/2/5 10:45,0.000022755,0,2.78,0
2003/2/5 11:00,0.000022755,0,2.78,0
2003/2/5 11:15,0.00004961,0,1.85,0
2003/2/5 11:30,0,0,0,0
2003/2/5 11:45,0,0,0,0
2003/2/5 12:00,0,0,0,0
2003/2/5 12:15,0,0,0,0
2003/2/5 12:30,0,0,0,0
2003/2/5 12:45,0,0,0,0
2003/2/5 13:00,0,0,0,0
2003/2/5 13:15,0.00001435,0,1.76,0
2003/2/5 13:30,2.80E-05,0,3.43,0
2003/2/5 13:45,2.37E-05,0,2.9,0
2003/2/5 14:00,3.78E-05,0,4.62,0
2003/2/5 14:15,2.72E-05,0,3.33,0
2003/2/5 14:30,2.34E-05,0,2.86,0
2003/2/5 14:45,2.32E-05,0,2.84,0
2003/2/5 15:00,0.000032185,0,3.94,0
2003/2/5 15:15,4.22E-05,0,5.16,0
2003/2/5 15:30,4.75E-05,0,5.81,0
2003/2/5 15:45,5.83E-05,0,7.13,0
2003/2/5 16:00,5.41E-05,0,6.61,0
2003/2/5 16:15,5.32E-05,0,6.51,0
2003/2/5 16:30,6.26E-05,0,7.66,0
2003/2/5 16:45,6.41E-05,0,7.84,0
2003/2/5 17:00,0.00007257,0,8.88,0
2003/2/5 17:15,0.000067035,0,8.2,0
2003/2/5 17:30,4.60E-05,0,5.62,0
2003/2/5 17:45,5.24E-05,0,6.41,0
2003/2/5 18:00,3.97E-05,0,4.86,0
2003/2/5 18:15,4.95E-05,0,6.05,0
2003/2/5 18:30,4.28E-05,0,5.23,0
2003/2/5 18:45,6.68E-05,0,8.17,0
2003/2/5 19:00,5.48E-05,0,6.71,0
2003/2/5 19:15,5.69E-05,0,6.96,0
2003/2/5 19:30,0.000059245,0,7.25,0
2003/2/5 19:45,6.04E-05,0,7.39,0
2003/2/5 20:00,0.000054735,0,6.69,0
2003/2/5 20:15,5.02E-05,0,6.14,0
2003/2/5 20:30,4.58E-05,0,5.61,0
2003/2/5 20:45,5.29E-05,0,6.48,0
2003/2/5 21:00,5.76E-05,0,7.04,0
2003/2/5 21:15,0.000060885,0,7.45,0
2003/2/5 21:30,5.81E-05,0,7.1,0
2003/2/5 21:45,6.43E-05,0,7.86,0
2003/2/5 22:00,5.63E-05,0,6.89,0
2003/2/5 22:15,3.86E-05,0,4.72,0
2003/2/5 22:30,3.88E-05,0,4.75,0
2003/2/5 22:45,5.26E-05,0,6.44,0
2003/2/5 23:00,0.00004469,0,5.47,0
2003/2/5 23:15,7.30E-05,0,4.22,0
2003/2/5 23:30,0,0,0,0
2003/2/5 23:45,0,0,0,0
2003/2/6 0:00,0,0,0,0
2003/2/6 0:15,0,0,0,0
2003/2/6 0:30,0,0,0,0
2003/2/6 0:45,0,0,0,0
2003/2/6 1:00,0,0,0,0
2003/2/6 1:15,0,0,0,0
2003/2/6 1:30,0,0,0,0
2003/2/6 1:45,0,0,0,0
2003/2/6 2:00,0,0,0,0
2003/2/6 2:15,0,0,0,0
2003/2/6 2:30,0,0,0,0
2003/2/6 2:45,0,0,0,0
2003/2/6 3:00,0,0,0,0
2003/2/6 3:15,0,0,0,0
2003/2/6 3:30,0,0,0,0
2003/2/6 3:45,0,0,0,0
2003/2/6 4:00,0,0,0,0
2003/2/6 4:15,0,0,0,0
2003/2/6 4:30,0,0,0,0
2003/2/6 4:45,0,0,0,0
2003/2/6 5:00,0,0,0,0
2003/2/6 5:15,0,0,0,0
2003/2/6 5:30,0,0,0,0
2003/2/6 5:45,0,0,0,0
2003/2/6 6:00,0,0,0,0
2003/2/6 6:15,0,0,0,0
2003/2/6 6:30,0,0,0,0
2003/2/6 6:45,0,0,0,0
2003/2/6 7:00,9.83E-05,0,12.03,0
2003/2/6 7:15,0.000107061,0,13.1,0
2003/2/6 7:30,0.000107061,0,13.09,0
2003/2/6 7:45,0.00010701,0,13.09,0
2003/2/6 8:00,0.00009594,0,11.73,0
2003/2/6 8:15,0.000022755,0,2.78,0
2003/2/6 8:30,5.21E-05,0,6.38,0
2003/2/6 8:45,0.000106446,0,13.02,0
2003/2/6 9:00,8.35E-05,0,10.22,0
2003/2/6 9:15,0.000102551,0,12.54,0
2003/2/6 9:30,0.000101988,0,12.47,0
2003/2/6 9:45,9.92E-05,0,12.13,0
2003/2/6 10:00,9.41E-05,0,11.52,0
2003/2/6 10:15,8.35E-05,0,10.21,0
2003/2/6 10:30,0.000088765,0,10.86,0
2003/2/6 10:45,0.000083025,0,10.16,0
2003/2/6 11:00,0.000082,0,10.03,0
2003/2/6 11:15,3.62E-05,0,0,0
2003/2/6 11:30,0,0,0,0
2003/2/6 11:45,0,0,0,0
2003/2/6 12:00,0,0,0,0
2003/2/6 12:15,0,0,0,0
2003/2/6 12:30,5.34E-05,0,6.53,0
2003/2/6 12:45,0.000107061,0,13.1,0
2003/2/6 13:00,0.000103628,0,12.67,0
2003/2/6 13:15,8.68E-05,0,10.62,0
2003/2/6 13:30,8.37E-05,0,10.24,0
2003/2/6 13:45,0.00009143,0,11.18,0
2003/2/6 14:00,7.41E-05,0,9.06,0
2003/2/6 14:15,0.00007339,0,8.98,0
2003/2/6 14:30,0.000060885,0,7.45,0
2003/2/6 14:45,4.56E-05,0,5.57,0
2003/2/6 15:00,0.000022755,0,2.78,0
2003/2/6 15:15,0.000022755,0,2.78,0
2003/2/6 15:30,0.000032595,0,0,0
2003/2/6 15:45,7.16E-05,0,8.76,0
2003/2/6 16:00,0.000107061,0,13.09,0
2003/2/6 16:15,0.000102295,0,12.51,0
2003/2/6 16:30,9.87E-05,0,12.08,0
2003/2/6 16:45,9.47E-05,0,11.58,0
2003/2/6 17:00,0.00009758,0,11.94,0
2003/2/6 17:15,7.96E-05,0,9.74,0
2003/2/6 17:30,0.00007626,0,9.33,0
2003/2/6 17:45,0.00006888,0,8.42,0
2003/2/6 18:00,7.54E-05,0,9.23,0
2003/2/6 18:15,7.26E-05,0,8.88,0
2003/2/6 18:30,0.00007954,0,9.73,0
2003/2/6 18:45,7.14E-05,0,8.74,0
2003/2/6 19:00,0.000073595,0,9,0
2003/2/6 19:15,7.26E-05,0,8.89,0
2003/2/6 19:30,8.18E-05,0,10.01,0
2003/2/6 19:45,7.17E-05,0,8.77,0
2003/2/6 20:00,7.45E-05,0,9.11,0
2003/2/6 20:15,6.93E-05,0,8.49,0
2003/2/6 20:30,7.40E-05,0,9.05,0
2003/2/6 20:45,7.53E-05,0,9.21,0
2003/2/6 21:00,0.000080155,0,9.81,0
2003/2/6 21:15,0.000086715,0,10.61,0
2003/2/6 21:30,8.18E-05,0,10.01,0
2003/2/6 21:45,8.95E-05,0,10.94,0
2003/2/6 22:00,0.00007585,0,9.28,0
2003/2/6 22:15,7.03E-05,0,8.59,0
2003/2/6 22:30,7.35E-05,0,8.99,0
2003/2/6 22:45,6.32E-05,0,7.74,0
2003/2/6 23:00,7.20E-05,0,8.81,0
2003/2/6 23:15,6.24E-05,0,7.63,0
2003/2/6 23:30,5.69E-05,0,2.62,0
2003/2/6 23:45,0,0,0,0
2003/2/7 0:00,0,0,0,0
2003/2/7 0:15,0,0,0,0
2003/2/7 0:30,0,0,0,0
2003/2/7 0:45,0,0,0,0
2003/2/7 1:00,0,0,0,0
2003/2/7 1:15,0,0,0,0
2003/2/7 1:30,0,0,0,0
2003/2/7 1:45,0,0,0,0
2003/2/7 2:00,0,0,0,0
2003/2/7 2:15,0,0,0,0
2003/2/7 2:30,0,0,0,0
2003/2/7 2:45,0,0,0,0
2003/2/7 3:00,0,0,0,0
2003/2/7 3:15,0,0,0,0
2003/2/7 3:30,0,0,0,0
2003/2/7 3:45,0,0,0,0
2003/2/7 4:00,0,0,0,0
2003/2/7 4:15,0,0,0,0
2003/2/7 4:30,0,0,0,0
2003/2/7 4:45,0,0,0,0
2003/2/7 5:00,0,0,0,0
2003/2/7 5:15,0,0,0,0
2003/2/7 5:30,0,0,0,0
2003/2/7 5:45,0,0,0,0
2003/2/7 6:00,0,0,0,0
2003/2/7 6:15,0,0,0,0
2003/2/7 6:30,0,0,0,0
2003/2/7 6:45,0,0,0,0
2003/2/7 7:00,4.87E-06,0,0.6,0
2003/2/7 7:15,0.000107061,0,13.1,0
2003/2/7 7:30,0.000107061,0,13.1,0
2003/2/7 7:45,0.000107061,0,13.09,0
2003/2/7 8:00,0.000107061,0,13.09,0
2003/2/7 8:15,0.000053505,0,4.37,0
2003/2/7 8:30,0.000009225,0,1.13,0
2003/2/7 8:45,9.77E-05,0,11.96,0
2003/2/7 9:00,0.00009225,0,11.29,0
2003/2/7 9:15,0.000104499,0,12.78,0
2003/2/7 9:30,0.00008979,0,10.98,0
2003/2/7 9:45,5.67E-05,0,2.41,0
2003/2/7 10:00,0,0,0,0
2003/2/7 10:15,0,0,0,0
2003/2/7 10:30,0,0,0,0
2003/2/7 10:45,0,0,0,0
2003/2/7 11:00,0,0,0,0
2003/2/7 11:15,0,0,0,0
2003/2/7 11:30,0,0,0,0
2003/2/7 11:45,0,0,0,0
2003/2/7 12:00,0,0,0,0
2003/2/7 12:15,0,0,0,0
2003/2/7 12:30,2.41E-05,0,2.95,0
2003/2/7 12:45,0.000022755,0,2.78,0
2003/2/7 13:00,0.000022755,0,2.78,0
2003/2/7 13:15,2.28E-05,0,2.79,0
2003/2/7 13:30,0.000022755,0,2.78,0
2003/2/7 13:45,2.28E-05,0,2.79,0
2003/2/7 14:00,2.28E-05,0,2.79,0
2003/2/7 14:15,0.000022755,0,2.78,0
2003/2/7 14:30,0.000022755,0,2.79,0
2003/2/7 14:45,6.49E-05,0,2.99,0
2003/2/7 15:00,2.96E-05,0,3.63,0
2003/2/7 15:15,2.31E-05,0,2.83,0
2003/2/7 15:30,3.87E-05,0,4.73,0
2003/2/7 15:45,5.06E-05,0,6.19,0
2003/2/7 16:00,3.88E-05,0,4.75,0
2003/2/7 16:15,3.92E-05,0,4.8,0
2003/2/7 16:30,5.38E-05,0,6.58,0
2003/2/7 16:45,4.01E-05,0,4.91,0
2003/2/7 17:00,4.48E-05,0,5.48,0
2003/2/7 17:15,5.94E-05,0,7.27,0
2003/2/7 17:30,5.11E-05,0,6.25,0
2003/2/7 17:45,0.00005535,0,6.77,0
2003/2/7 18:00,0.000047765,0,5.84,0
2003/2/7 18:15,4.63E-05,0,5.66,0
2003/2/7 18:30,4.19E-05,0,5.13,0
2003/2/7 18:45,5.41E-05,0,6.62,0
2003/2/7 19:00,0.000041205,0,5.04,0
2003/2/7 19:15,3.99E-05,0,4.89,0
2003/2/7 19:30,4.15E-05,0,5.07,0
2003/2/7 19:45,4.54E-05,0,5.56,0
2003/2/7 20:00,4.68E-05,0,5.72,0
2003/2/7 20:15,4.99E-05,0,6.1,0
2003/2/7 20:30,4.08E-05,0,5,0
2003/2/7 20:45,5.26E-05,0,6.44,0
2003/2/7 21:00,4.27E-05,0,5.22,0
2003/2/7 21:15,5.83E-05,0,7.14,0
2003/2/7 21:30,5.97E-05,0,7.3,0
2003/2/7 21:45,6.49E-05,0,7.94,0
2003/2/7 22:00,6.44E-05,0,7.88,0
2003/2/7 22:15,7.28E-05,0,8.91,0
2003/2/7 22:30,5.30E-05,0,6.49,0
2003/2/7 22:45,0.00005125,0,6.27,0
2003/2/7 23:00,3.89E-05,0,4.76,0
2003/2/7 23:15,0.00005207,0,6.37,0
2003/2/7 23:30,3.91E-05,0,4.77,0
2003/2/7 23:45,5.81E-05,0,3.13,0
2003/2/8 0:00,0,0,0,0
2003/2/8 0:15,0,0,0,0
2003/2/8 0:30,0,0,0,0
2003/2/8 0:45,0,0,0,0
2003/2/8 1:00,0,0,0,0
2003/2/8 1:15,0,0,0,0
2003/2/8 1:30,0,0,0,0
2003/2/8 1:45,0,0,0,0
2003/2/8 2:00,0,0,0,0
2003/2/8 2:15,0,0,0,0
2003/2/8 2:30,0,0,0,0
2003/2/8 2:45,0,0,0,0
2003/2/8 3:00,0,0,0,0
2003/2/8 3:15,0,0,0,0
2003/2/8 3:30,0,0,0,0
2003/2/8 3:45,0,0,0,0
2003/2/8 4:00,0,0,0,0
2003/2/8 4:15,0,0,0,0
2003/2/8 4:30,0,0,0,0
2003/2/8 4:45,0,0,0,0
2003/2/8 5:00,0,0,0,0
2003/2/8 5:15,0,0,0,0
2003/2/8 5:30,0,0,0,0
2003/2/8 5:45,0,0,0,0
2003/2/8 6:00,0,0,0,0
2003/2/8 6:15,0,0,0,0
2003/2/8 6:30,0,0,0,0
2003/2/8 6:45,0,0,0,0
2003/2/8 7:00,0,0,0,0
2003/2/8 7:15,0.000104653,0,12.8,0
2003/2/8 7:30,0.000103525,0,12.67,0
2003/2/8 7:45,7.43E-05,0,9.09,0
2003/2/8 8:00,3.08E-05,0,3.77,0
2003/2/8 8:15,5.77E-05,0,7.06,0
2003/2/8 8:30,3.27E-05,0,4,0
2003/2/8 8:45,3.76E-05,0,0,0
2003/2/8 9:00,2.70E-05,0,3.3,0
2003/2/8 9:15,0.000022755,0,2.78,0
2003/2/8 9:30,0.000022755,0,2.78,0
2003/2/8 9:45,0.000022755,0,2.78,0
2003/2/8 10:00,0.000022755,0,2.78,0
2003/2/8 10:15,0.000022755,0,2.78,0
2003/2/8 10:30,0.000022755,0,2.78,0
2003/2/8 10:45,0.000022755,0,2.78,0
2003/2/8 11:00,0.000022755,0,2.78,0
2003/2/8 11:15,0.000022755,0,2.78,0
2003/2/8 11:30,0.000022755,0,2.78,0
2003/2/8 11:45,0.000022755,0,2.78,0
2003/2/8 12:00,0.00003485,0,0,0
2003/2/8 12:15,0,0,0,0
2003/2/8 12:30,0,0,0,0
2003/2/8 12:45,0,0,0,0
2003/2/8 13:00,0,0,0,0
2003/2/8 13:15,0,0,0,0
2003/2/8 13:30,0,0,0,0
2003/2/8 13:45,0,0,0,0
2003/2/8 14:00,0,0,0,0
2003/2/8 14:15,0,0,0,0
2003/2/8 14:30,0,0,0,0
2003/2/8 14:45,0,0,0,0
2003/2/8 15:00,2.20E-05,0,2.7,0
2003/2/8 15:15,2.28E-05,0,2.79,0
2003/2/8 15:30,2.47E-05,0,3.02,0
2003/2/8 15:45,3.86E-05,0,4.72,0
2003/2/8 16:00,3.77E-05,0,4.61,0
2003/2/8 16:15,0.000022755,0,2.78,0
2003/2/8 16:30,2.90E-05,0,3.54,0
2003/2/8 16:45,2.65E-05,0,3.24,0
2003/2/8 17:00,3.95E-05,0,4.84,0
2003/2/8 17:15,0.000028905,0,3.54,0
2003/2/8 17:30,3.32E-05,0,4.06,0
2003/2/8 17:45,3.29E-05,0,0,0
2003/2/8 18:00,0,0,0,0
2003/2/8 18:15,0,0,0,0
2003/2/8 18:30,0,0,0,0
2003/2/8 18:45,0,0,0,0
2003/2/8 19:00,7.61E-05,0,9.31,0
2003/2/8 19:15,6.99E-05,0,8.55,0
2003/2/8 19:30,0.00006273,0,7.67,0
2003/2/8 19:45,6.46E-05,0,7.9,0
2003/2/8 20:00,6.72E-05,0,8.22,0
2003/2/8 20:15,6.10E-05,0,7.47,0
2003/2/8 20:30,6.60E-05,0,8.07,0
2003/2/8 20:45,0.000052275,0,6.4,0
2003/2/8 21:00,5.90E-05,0,7.21,0
2003/2/8 21:15,7.26E-05,0,8.89,0
2003/2/8 21:30,5.07E-05,0,6.21,0
2003/2/8 21:45,0.000043255,0,5.29,0
2003/2/8 22:00,0.00003649,0,4.47,0
2003/2/8 22:15,3.34E-05,0,4.08,0
2003/2/8 22:30,0.00002747,0,3.36,0
2003/2/8 22:45,0.000022755,0,2.78,0
2003/2/8 23:00,0.000022755,0,2.78,0
2003/2/8 23:15,2.29E-05,0,2.8,0
2003/2/8 23:30,0.000022755,0,2.78,0
2003/2/8 23:45,0.000022755,0,2.78,0
2003/2/9 0:00,2.28E-05,0,2.79,0
2003/2/9 0:15,2.29E-05,0,2.8,0
2003/2/9 0:30,0.000022755,0,2.78,0
2003/2/9 0:45,3.44E-05,0,0,0
2003/2/9 1:00,0,0,0,0
2003/2/9 1:15,0,0,0,0
2003/2/9 1:30,0,0,0,0
2003/2/9 1:45,0,0,0,0
2003/2/9 2:00,0,0,0,0
2003/2/9 2:15,0,0,0,0
2003/2/9 2:30,0,0,0,0
2003/2/9 2:45,0,0,0,0
2003/2/9 3:00,0,0,0,0
2003/2/9 3:15,0,0,0,0
2003/2/9 3:30,0,0,0,0
2003/2/9 3:45,0,0,0,0
2003/2/9 4:00,0,0,0,0
2003/2/9 4:15,0,0,0,0
2003/2/9 4:30,0,0,0,0
2003/2/9 4:45,0,0,0,0